Hourly Data Report for October 23, 2016

All times are specified in Local Standard Time (LST). Add 1 hour to adjust for Daylight Saving Time where and when it is observed.

CLYDE RIVER A
NUNAVUT

70°29'09.000" N
68°31'01.000" W
26.50 m
2400804
71090
YCY

Download Data

Hourly Data (October 2016)
Hourly Data Report for October 23, 2016
Temp Definition
°C
Dew Point Temp Definition
°C
Rel Hum Definition
%
Wind Dir Definition
10's deg

Wind Spd Definition
km/h
Visibility Definition
km
Stn Press Definition
kPa
Hmdx Definition


Wind Chill Definition


Weather Definition


TIME
00:00 Legend Double Dagger -8.7 -12.2 76 29 22 16.1 102.44   -17 LegendNANA
01:00 Legend Double Dagger -8.0 -11.7 75 28 22 16.1 102.44   -16 LegendNANA
02:00 Legend Double Dagger -6.4 -10.8 71 29 22 16.1 102.47   -14 LegendNANA
03:00 Legend Double Dagger -7.7 -11.6 74 29 22 16.1 102.49   -15 LegendNANA
04:00 Legend Double Dagger -7.2 -11.5 72 29 34 16.1 102.50   -16 LegendNANA
05:00 Legend Double Dagger -6.2 -9.9 75 29 28 16.1 102.54   -14 LegendNANA
06:00 Legend Double Dagger -6.0 -10.3 72 29 21 16.1 102.54   -13 LegendNANA
07:00 Legend Double Dagger -7.6 -11.6 73 28 22 16.1 102.51   -15 LegendNANA
08:00 Legend Double Dagger -6.8 -11.1 72 29 22 16.1 102.53   -14 LegendNANA
09:00 Legend Double Dagger -7.4 -11.7 72 29 22 16.1 102.57   -15 LegendNANA
10:00 Legend Double Dagger -8.9 -13.6 69 29 22 16.1 102.56   -17 LegendNANA
11:00 Legend Double Dagger -9.3 -13.7 71 30 18 16.1 102.57   -17 LegendNANA
12:00 Legend Double Dagger -9.2 -13.9 69 29 26 16.1 102.59   -18 LegendNANA
13:00 Legend Double Dagger -9.0 -12.8 74 29 21 16.1 102.59   -17 LegendNANA
14:00 Legend Double Dagger -8.9 -13.6 69 30 22 16.1 102.61   -17 LegendNANA
15:00 Legend Double Dagger -9.6 -13.4 74 29 24 16.1 102.62   -18 LegendNANA
16:00 Legend Double Dagger -9.5 -12.8 77 30 26 16.1 102.64   -18 LegendNANA
17:00 Legend Double Dagger -10.6 -13.5 79 29 24 16.1 102.64   -19 LegendNANA
18:00 Legend Double Dagger -9.5 -12.7 78 29 30 16.1 102.63   -19 LegendNANA
19:00 Legend Double Dagger -9.3 -12.3 79 30 24 16.1 102.60   -18 LegendNANA
20:00 Legend Double Dagger -9.9 -13.0 78 29 30 16.1 102.59   -19 LegendNANA
21:00 Legend Double Dagger -8.0 -11.1 79 29 35 16.1 102.54   -18 LegendNANA
22:00 Legend Double Dagger -7.6 -10.3 81 29 28 16.1 102.53   -16 Snow
23:00 Legend Double Dagger -6.4 -9.1 81 32 32 16.1 102.48   -15 LegendNANA

Notes on Data Quality.

Legend

  • E = Estimated
  • M = Missing
  • NA = Not Available
  • ‡ = Partner data that is not subject to review by the National Climate Archives
Date modified: